FENGYUN 1C DEB, 31056

Orbit data source: Space-Track

FENGYUN 1C DEB, 31056 is space debris in SSO originally from a launch on Mon, 10 May 1999 UTC launched from the Taiyaun Space Center, China (TSC). Fengyun 1C debris stems from the Chinese weather satellite Fengyun-1C, which was intentionally destroyed by a Chinese anti-satellite missile in 2007. This event dramatically increased the amount of space debris, with thousands of trackable fragments posing hazards to satellites and human spaceflight. The Fengyun 1C debris cloud has become a focal point in discussions about space sustainability and the need for international regulations to prevent the creation of new debris.

Loading next visibility...
Identifier
31056, 1999-025BFA
Orbit
SSO
Country
Flag of CNCN / PRC
Related business
Manufacturer
Unknown
Mission
Spacecraft
Bus & Motor
Unknown
Mass
Unknown
Launch date (UTC)
1999-05-10 (27 years ago)
Launch vehicle
Unknown
Launch site
Taiyaun Space Center, China (TSC)
Object type
Payload
Rocket body
Debris
Shape & HBR
Unknown shape, 0.1 m
Radar Cross Section
Small (<0.1 m²)

Expand to show TLE details & history
Last TLE update: 1 day ago

TLE from 1 day ago
0 FENGYUN 1C DEB
1 31056U 99025BFA 26070.41604808  .00000728  00000-0  40095-3 0  9994
2 31056  98.6799  55.4055 0026904  86.9081  67.4378 14.14448490980711
Epoch: 2026-03-11T09:59Z
TLE epoch observation values (Epoch: 2026-03-11T09:59:06.554Z)
Latitude
25.08804°
Longitude
-79.37549°
Altitude
839.807 km
Speed
7.439 km/s
True Right ascension
15h 57m 55s
True Declination
24° 57' 28"
Sunlit
Object was in daylight at epoch
Visualization orbit readout
Latitude
Unknown
Longitude
Unknown
Altitude
Unknown
Speed
Unknown
Apparent Right ascension
Unknown
Apparent Declination
Unknown
Sunlit
N/A
Visualization observer readout
Local Sidereal Time
02:16:51
Azimuth
Unknown
Elevation
Unknown
Doppler factor
Unknown
Orbital elements
Apogee altitude
860.777 km
Perigee altitude
821.93 km
Semi-major axis
7,219.491 km
Eccentricity
0.00269
Inclination
98.6799°
RAAN
55.4055°
Arg. of periapsis
86.9081°
True anomaly
67.72287°
Mean anomaly
67.4378°
Eccentric anomaly
67.5803°
Mean motion
3.53821 °/min
Orbital period
101.75 mins
BSTAR
0.00040095
Loading maneuver chart data...
Computing Atmospheric mass density...

Documentation

Showing up to 5 results
|